Location: Brno
(49.2000°N, 16.6333°E)
Time: 07:05:05
(UTC+01:00)

ISS - Pass Details

Date: 30 January 2019
Orbit: 403 x 411 km, 51.6° (Epoch: 21 February)

Event Time Altitude Azimuth Distance (km) Brightness Sun altitude
Rises 19:00:22 0° 278° (W) 2,337 1.5 -21.9°
Reaches altitude 10° 19:02:29 10° 284° (WNW) 1,477 0.1 -22.3°
Enters shadow 19:04:57 41° 313° (NW) 609 -2.7 -22.7°
